Location: Hoyos del Collado
(40.3594°N, 5.2003°W)
Time: 12:10:43
(UTC+00:00)

Cosmos 1980 Rocket - Pass Details

Date: 18 April 2024
Orbit: 827 x 851 km, 71.0° (Epoch: 21 May)

Event Time Altitude Azimuth Distance (km) Brightness Sun altitude
Exits shadow 21:54:59 23° 48° (NE) 1,692 3.7 -28.5°
Drops below altitude 10° 21:57:16 10° 36° (NE) 2,457 4.7 -28.7°
Sets 21:59:48 0° 30° (NNE) 3,399 5.6 -29.1°
